High Desert Yearling Classic - Final Race: 360 Miles; Alamo, NV

Station: Alamo, NV - A Race

Distance: 360.39 Miles

Release: 10-Jun-2019 07:55

Weather Release: Sunny    Arrival: Sunny

Wind at Release: 5 MPH N     Wind at Arrival: 5-10 MPH W

Temp at Release: 65°    Temp at Arrival: 80°

Lofts: 98

Birds: 308

Clocked: 187

Good Luck to Everyone!
Drops Pos Breeder Pigeon Name Color Sex Ent Arrival Speed To Win Eligible
3231 1 Almosta Loft - WA 0096-AU18-SD BB C 1 16:57:30.26 1169.182 00:00:00 Yes
3231 2 Powerstroke Loft - UT 0368-AU18-PS BBWF C 1 16:59:22.49 1165.165 00:01:52 Yes
- 1-DROP 16:59:21.00 1164.165
2200 3 Sam Haslem - UT 1852-AU18-SAM BB H 1 18:57:15.63 957.760 01:59:45 Yes
1925 4 Powerstroke Loft - UT 0168-AU18-PS BC H 2 18:57:18.25 957.697 01:59:48 Yes
1650 5 Burge Racing Pigeon Loft - CA 0153-AU18-BURG BBWF H 1 19:04:35.51 947.273 02:07:05 Yes
1375 6 Thunder Birds/Rodriguez Breeding Loft - TX 18438-AU18-WIN Rock 'em Good BB C 1 19:25:54.43 918.049 02:28:24 Yes
1375 7 Wise Loft - IL 7177-AU18-CHI BB C 1 19:25:56.34 918.006 02:28:26 Yes
1375 8 Bruce Daehn - FL 0055-AU18-NWFI 981x790 BC H 1 19:33:45.28 907.738 02:36:15 Yes
1375 9 Yendez Loft - TX 0236-AU18-YEND RC C 1 19:42:20.66 896.715 02:44:50 Yes
1375 10 Morfin Loft - ID 1493-AU18-IDA BB H 1 19:43:14.95 895.570 02:45:45 Yes
825 11 Carini / Codd - OR 3480-AU18-VK BBWF C 1 19:43:19.01 895.484 02:45:49 Yes
825 12 K/N Loft - HI 0286-AU18-FIA BB C 1 19:43:29.94 895.254 02:46:00 Yes
825 13 Stella Loft - TX 25499-AU18-AA BB C 1 19:43:35.69 895.133 02:46:05 Yes
825 14 Warbird Loft - KS 84014-AU18-ARPU BBSP H 1 19:55:43.56 880.066 02:58:13 Yes
825 15 Triple P Racers - WI 0983-AU18-RRR BB H 1 19:55:50.96 879.915 02:58:21 Yes
550 16 Triple P Racers - WI 0990-AU18-RRR BB H 2 19:56:02.88 879.673 02:58:33 Yes
550 17 Racing Pigeon Mall - WA 0829-AU18-RPM BB C 1 19:56:24.39 879.236 02:58:54 Yes
550 18 Callahan Loft - MO 0363-AU18-AA BCTC C 1 20:08:44.28 864.459 03:11:14 Yes
550 19 Mick And Joan - MI 1887-AU18-GRM BCSP H 1 20:08:48.01 864.386 03:11:18 Yes
550 20 Almosta Loft - WA 0083-AU18-SD BCSP H 2 20:14:23.02 857.858 03:16:53 Yes
137 21 Jones Boys - UT 0477-AU18-SLI 3032x6694 BC H 1 20:29:17.54 840.903 03:31:47 Yes
137 22 A.D.S Hilltop Family Loft - NJ 16981-AU18-ARPU A.D.S JR. X 2401 BC C 1 20:45:06.67 823.630 03:47:36 Yes
137 23 Bob Bostwick - CA 0838-AU18-COCO BC C 1 20:50:07.72 818.298 03:52:37 Yes
137 24 Zonnak Family Loft - MD 0398-AU18-DEL 52958 + 14719 BC H 1 20:58:23.88 809.660 04:00:54 Yes
137 25 Kenneth Lum Lee - HI 0025-AU18-FIA BC C 1 21:03:24.97 804.507 04:05:55 Yes
137 26 K/N Loft - HI 1009-IF18-LBRA BB H 2 21:20:37.86 787.316 04:23:08 Yes
137 27 Marian Taloi - OR 42264-AU18-AA 720/kannibaal BBSP C 1 21:23:24.80 784.607 04:25:55 Yes
137 28 Transilvania Loft - NV 6578-AU18-HP BB H 1 2019-06-11 05:58:24.81 739.035 05:15:46 Yes
137 29 Joe Zarachowicz - MD 1683-IF18-CCC BBWF H 1 2019-06-11 06:13:42.70 726.092 05:31:03 Yes
137 30 Silver Dollar Loft - CO 0084-AU18-SD BBSP H 1 2019-06-11 06:16:00.62 724.187 05:33:21 Yes
137 31 Lazy A C Loft - IN 0312-AU18-LAZY BC C 1 2019-06-11 06:24:10.86 717.493 05:41:32 Yes
32 B W Loft - ID 18347-AU18-RMR BB C 1 2019-06-11 06:24:13.48 717.458 05:41:34 Yes
33 Pelican Loft - ID 1804-AU18-PAPA BB H 1 2019-06-11 06:31:06.07 711.920 05:48:27 Missing
34 Mc Laughlin Lofts - MA 2074-AU18-MCLO BB H 1 2019-06-11 06:44:58.05 701.010 06:02:19 Yes
35 Prairie Gold Loft - CO 8134-AU18-FH 8134 H 1 2019-06-11 07:04:10.71 686.436 06:21:31 Yes
36 Team Codd / Brink - OR 1865-AU18-DNT BB C 1 2019-06-11 07:23:19.82 672.497 06:40:41 Yes
37 Joe Zarachowicz - MD 1653-IF18-CCC BBSP C 2 2019-06-11 07:23:34.21 672.327 06:40:55 Yes
38 Shakinaw Loft - CO 0035-AU18-SILD BCSP C 1 2019-06-11 07:31:30.89 666.712 06:48:52 Yes
39 Powerstroke Loft - UT 0136-AU18-PS BB H 3 2019-06-11 07:39:11.31 661.377 06:56:32 Yes
40 Bob Lehman - PA 0463-IF18-PGC BB H 1 2019-06-11 07:43:17.73 658.557 07:00:38 Yes
41 Steve Beier - AZ 10857-AU18-JEDD BB C 1 2019-06-11 07:43:22.78 658.500 07:00:43 Yes
42 Mario Rodriguez - AZ 48911-AU18-ARPU BB C 1 2019-06-11 07:43:33.10 658.382 07:00:54 Yes
43 Pelican Loft - ID 1869-AU18-PL BB H 2 2019-06-11 07:51:06.59 653.257 07:08:27 Yes
44 War Eagle Loft - AL 0460-AU18-WEL RC H 1 2019-06-11 08:02:45.56 645.512 07:20:06 Yes
45 Eagle Ridge Lofts - WY 18036-AU18-EAGL BBSP C 1 2019-06-11 08:10:29.83 640.469 07:27:51 Yes
46 Almosta Loft - WA 0090-AU18-SD BB C 3 2019-06-11 08:13:02.82 638.824 07:30:24 Yes
47 ** J-Ireneo Loft ** - CA 4259-AU18-JEDD “ In The Mix “ BB C 1 2019-06-11 08:23:41.25 632.051 07:41:02 Yes
48 Ruybal Family Loft - CO 0258-AU18-POP Wrong Way SLT C 1 2019-06-11 08:25:30.71 630.904 07:42:51 Yes
49 Joe Carini - OR 1922-AU18-CAR RCSP H 1 2019-06-11 08:26:43.51 630.143 07:44:04 Yes
50 Thunder Birds/Rodriguez Breeding Loft - TX 18440-AU18-WIN Rock Steady BB H 2 2019-06-11 08:26:56.58 630.007 07:44:17 Yes
51 Carini / Codd - OR 1856-AU18-DNT BBWF H 2 2019-06-11 08:31:56.74 626.892 07:49:17 Yes
52 Team Codd / Brink - OR 1876-AU18-DNT BB C 2 2019-06-11 08:32:48.08 626.362 07:50:09 Yes
53 Silver Dollar Loft - CO 0118-AU18-SILD BB H 2 2019-06-11 08:51:06.40 615.241 08:08:27 Yes
54 Spirit In The Sky - IL 0211-AU18-LCC BC C 1 2019-06-11 08:56:36.80 611.972 08:13:58 Yes
55 Hollywood Lou Loft - FL 19625-AU18-AA BB C 1 2019-06-11 08:58:11.15 611.045 08:15:32 Yes
56 Racing Pigeon Mall - WA 0821-AU18-RPM BB C 2 2019-06-11 09:01:29.28 609.107 08:18:50 Yes
57 Joe Zarachowicz - MD 1652-IF18-CCC BBSP C 3 2019-06-11 09:02:44.92 608.371 08:20:06 Yes
58 Yendez Loft - TX 0230-AU18-YEND PENC H 2 2019-06-11 09:04:07.88 607.565 08:21:29 Yes
59 Kwan Loft - CA 6419-AU18-HP BC C 1 2019-06-11 09:04:57.03 607.089 08:22:18 Yes
60 Yendez Loft - TX 0245-AU18-YEND BB C 3 2019-06-11 09:07:12.48 605.780 08:24:33 Yes
61 P N W Challenge - ID 0739-AU18-IDA Pair#J BB H 1 2019-06-11 09:10:41.18 603.774 08:28:02 Yes
62 Lazy A C Loft - IN 0296-AU18-LAZY BB C 2 2019-06-11 09:10:44.01 603.747 08:28:05 Yes
63 Ilier Mesa - FL 5276-AU18-JEDD BB C 1 2019-06-11 09:12:02.73 602.994 08:29:23 Yes
64 Evolution One Loft - UT 5612-AU18-OGN BC H 1 2019-06-11 09:12:23.75 602.793 08:29:44 Yes
65 P N W Challenge - ID 0171-AU18-PNWC Pair#15 BB C 2 2019-06-11 09:14:43.10 601.465 08:32:04 Yes
66 Triple P Racers - WI 0997-AU18-RRR BBSP H 3 2019-06-11 09:15:28.11 601.038 08:32:49 Yes
67 Twin Loft & Joe - MD 80325-IF18-BWI BC H 1 2019-06-11 09:17:16.55 600.010 08:34:37 Yes
68 Spirit In The Sky - IL 0208-AU18-LCC BB C 2 2019-06-11 09:20:04.19 598.429 08:37:25 Yes
69 Fly & Criddle - ID 1856-AU18-KFLY FADE H 1 2019-06-11 09:20:15.37 598.323 08:37:36 Yes
70 Marian Taloi - OR 42268-AU18-AA mom was 14 at final 2018 BBWF H 2 2019-06-11 09:32:37.51 591.423 08:49:58 Yes
71 Terrace Loft - NJ 0658-AU18-ATS BB C 1 2019-06-11 09:32:40.23 591.398 08:50:01 Yes
72 Bob Lehman - PA 1159-IF18-PGC BC H 2 2019-06-11 09:32:51.40 591.295 08:50:12 Yes
73 Fly & Criddle - ID 18101-AU18-RMR BC H 2 2019-06-11 09:34:38.58 590.312 08:51:59 Yes
74 Bruce Daehn - FL 0056-AU18-NWFI 981x790 BB C 2 2019-06-11 09:37:26.81 588.776 08:54:48 Yes
75 Ed Kehl - UT 1702-AU18-WFA DC H 1 2019-06-11 09:45:56.03 584.174 09:03:17 Yes
76 P N W Challenge - ID 0180-AU18-PNWC Pair#12 BB C 3 2019-06-11 09:45:57.49 584.161 09:03:18 Yes
77 Aimhigh Loft - CA 0165-AU18-FMT AIM-616370040 BC H 1 2019-06-11 09:48:38.66 582.719 09:05:59 Yes
78 Sam Haslem - UT 1851-AU18-SAM SLT H 2 2019-06-11 09:53:09.65 580.311 09:10:30 Yes
79 Ruybal Family Loft - CO 0247-AU18-POP BBSP H 2 2019-06-11 09:55:02.98 579.310 09:12:24 Yes
80 Triple P Racers - WI 0977-AU18-RRR DC C 4 2019-06-11 10:22:23.76 565.194 09:39:44 Yes
81 Ruybal Family Loft - CO 0248-AU18-POP BBWF C 3 2019-06-11 10:29:18.61 561.733 09:46:39 Yes
82 Sam Haslem - UT 1867-AU18-SAM DC C 3 2019-06-11 10:38:10.23 557.359 09:55:31 Yes
83 B S Syndicate - IL 0017-AU18-BEKO Kawaii BB C 1 2019-06-11 10:40:47.19 556.081 09:58:08 Yes
84 Ruybal Family Loft - CO 0320-AU18-POP BB C 4 2019-06-11 10:40:57.17 556.000 09:58:18 Yes
85 Burge Racing Pigeon Loft - CA 0159-AU18-BURG BB H 2 2019-06-11 10:52:54.70 550.232 10:10:15 Yes
86 Huan Qiu Zhang - NC 0082-AU18-HQZ BB H 1 2019-06-11 11:01:38.87 546.093 10:19:00 Yes
86 Morfin Loft - ID 0403-AU18-IDA BC H 2 2019-06-11 11:01:38.96 546.093 10:19:00 Yes
88 Team Elite - IL 0624-AU18-ELIT BC H 1 2019-06-11 11:04:01.78 544.976 10:21:23 Yes
89 Team Elite - IL 0623-AU18-ELIT BC H 2 2019-06-11 11:04:04.72 544.953 10:21:25 Yes
90 Fly & Criddle - ID 1857-AU18-KFLY FADE H 3 2019-06-11 11:04:32.43 544.737 10:21:53 Yes
91 Joe Carini - OR 1931-AU18-CAR BC H 2 2019-06-11 11:06:33.88 543.792 10:23:55 Yes
92 Twin Loft & Joe - MD 81732-IF18-BWI BCWF C 2 2019-06-11 11:10:49.41 541.813 10:28:10 Yes
93 Joe Zarachowicz - MD 1659-IF18-CCC BB H 4 2019-06-11 11:17:32.33 538.723 10:34:53 Yes
94 Ed Kehl - UT 1715-AU18-WFA BB C 2 2019-06-11 11:17:33.29 538.716 10:34:54 Yes
95 Wise Loft - IL 7172-AU18-CHI BBPD C 2 2019-06-11 11:26:29.29 534.659 10:43:50 Yes
96 Larios Loft - CA 2185-AU18-FS BC H 1 2019-06-11 11:31:45.94 532.291 10:49:07 Yes
97 Best Loft - IL 0042-AU18-BEST MLY H 1 2019-06-11 11:34:47.63 530.942 10:52:08 Yes
98 S & M Loft 3 - ID 1203-AU18-IDA GRZ H 1 2019-06-11 11:34:55.91 530.881 10:52:17 Yes
99 Flyhome Loft - CA 1891-AU18-FH BB C 1 2019-06-11 11:34:56.76 530.874 10:52:18 Yes

There are 308 bird records

Note: These Race Results are unofficial and subject to change until verified by the Race Committee and declared final.